TimeEST,TemperatureF,Dew PointF,Humidity,Sea Level PressureIn,VisibilityMPH,Wind Direction,Wind SpeedMPH,Gust SpeedMPH,PrecipitationIn,Events,Conditions,WindDirDegrees,DateUTC
12:15 AM,49.8,49.8,100,30.05,3.0,Calm,Calm,-,N/A,Rain,Light Rain,0,2014-01-11 05:15:00
12:35 AM,49.8,49.8,100,30.04,3.0,Calm,Calm,-,N/A,Rain,Rain,0,2014-01-11 05:35:00
12:55 AM,49.8,49.8,100,30.02,2.0,Calm,Calm,-,N/A,Rain,Light Rain,0,2014-01-11 05:55:00
1:15 AM,50.0,50.0,100,30.01,4.0,Calm,Calm,-,N/A,Rain,Rain,0,2014-01-11 06:15:00
1:35 AM,50.0,50.0,100,30.00,3.0,Calm,Calm,-,N/A,Rain,Light Rain,0,2014-01-11 06:35:00
1:55 AM,49.8,49.8,100,29.99,1.8,Calm,Calm,-,N/A,,Light Drizzle,0,2014-01-11 06:55:00
2:15 AM,50.0,50.0,100,29.97,2.5,East,3.5,-,N/A,Rain,Rain,80,2014-01-11 07:15:00
2:35 AM,50.0,50.0,100,29.96,1.0,Calm,Calm,-,N/A,Rain,Light Rain,0,2014-01-11 07:35:00
2:55 AM,49.6,49.6,100,29.94,0.8,Calm,Calm,-,N/A,,Light Drizzle,0,2014-01-11 07:55:00
3:15 AM,49.6,49.6,100,29.93,0.5,ESE,3.5,-,N/A,Rain,Heavy Rain,110,2014-01-11 08:15:00
3:35 AM,49.6,49.6,100,29.94,2.5,Calm,Calm,-,N/A,Rain,Heavy Rain,0,2014-01-11 08:35:00
3:55 AM,50.0,50.0,100,29.94,1.8,Calm,Calm,-,N/A,Rain,Light Rain,0,2014-01-11 08:55:00
4:15 AM,49.6,49.6,100,29.92,1.0,Calm,Calm,-,N/A,Rain,Rain,0,2014-01-11 09:15:00
4:35 AM,49.5,49.5,100,29.92,1.5,Calm,Calm,-,N/A,Rain,Rain,0,2014-01-11 09:35:00
4:55 AM,50.0,50.0,100,29.92,2.0,Calm,Calm,-,N/A,Rain,Rain,0,2014-01-11 09:55:00
5:15 AM,50.0,50.0,100,29.89,1.5,Calm,Calm,-,N/A,Rain,Rain,0,2014-01-11 10:15:00
5:35 AM,49.6,49.6,100,29.88,1.2,Calm,Calm,-,N/A,Rain,Rain,0,2014-01-11 10:35:00
5:55 AM,49.5,49.5,100,29.87,2.0,Calm,Calm,-,N/A,,Light Drizzle,0,2014-01-11 10:55:00
6:15 AM,49.5,49.5,100,29.86,0.8,East,3.5,-,N/A,,Overcast,80,2014-01-11 11:15:00
6:35 AM,50.0,50.0,100,29.85,0.5,Calm,Calm,-,N/A,,Light Drizzle,0,2014-01-11 11:35:00
6:55 AM,49.5,49.5,100,29.84,0.8,Calm,Calm,-,N/A,,Drizzle,0,2014-01-11 11:55:00
7:15 AM,49.3,49.3,100,29.83,1.0,Calm,Calm,-,N/A,,Drizzle,0,2014-01-11 12:15:00
7:35 AM,49.3,49.3,100,29.81,1.2,ENE,3.5,-,N/A,,Drizzle,70,2014-01-11 12:35:00
7:55 AM,49.6,49.6,100,29.81,1.5,East,3.5,-,N/A,Rain,Light Rain,80,2014-01-11 12:55:00
8:15 AM,49.5,49.5,100,29.77,0.2,ESE,3.5,-,N/A,Fog,Fog,110,2014-01-11 13:15:00
8:35 AM,50.0,50.0,100,29.76,0.2,Calm,Calm,-,N/A,Fog,Fog,0,2014-01-11 13:35:00
8:55 AM,50.0,50.0,100,29.78,0.2,NW,19.6,29.9,N/A,Rain,Light Rain,310,2014-01-11 13:55:00
9:15 AM,53.2,53.2,100,29.80,3.0,WSW,5.8,-,N/A,Rain,Light Rain,250,2014-01-11 14:15:00
9:35 AM,54.3,54.3,100,29.81,5.0,SW,5.8,-,N/A,Rain,Rain,230,2014-01-11 14:35:00
9:55 AM,54.7,54.7,100,29.79,7.0,Calm,Calm,-,N/A,Rain,Rain,0,2014-01-11 14:55:00
10:15 AM,54.9,54.9,100,29.80,7.0,SSW,4.6,-,N/A,Rain,Rain,200,2014-01-11 15:15:00
10:35 AM,55.0,55.0,100,29.80,3.0,SW,6.9,-,N/A,Rain,Heavy Rain,220,2014-01-11 15:35:00
10:55 AM,55.2,55.2,100,29.80,4.0,SW,6.9,-,N/A,Rain,Heavy Rain,230,2014-01-11 15:55:00
11:15 AM,55.4,55.4,100,29.78,3.0,Calm,Calm,-,N/A,Rain,Rain,0,2014-01-11 16:15:00
11:35 AM,55.6,55.6,100,29.77,3.0,South,3.5,-,N/A,Rain,Rain,190,2014-01-11 16:35:00
11:55 AM,55.8,55.8,100,29.76,4.0,SW,4.6,-,N/A,Rain,Rain,230,2014-01-11 16:55:00
12:15 PM,55.6,55.6,100,29.74,3.0,West,4.6,-,N/A,Rain,Rain,270,2014-01-11 17:15:00
12:35 PM,56.1,56.1,100,29.71,7.0,Calm,Calm,-,N/A,Rain,Rain,0,2014-01-11 17:35:00
12:55 PM,56.3,56.3,100,29.74,10.0,SW,9.2,-,N/A,Rain,Light Rain,220,2014-01-11 17:55:00
1:15 PM,57.2,57.2,100,29.72,10.0,SW,10.4,16.1,N/A,,Scattered Clouds,230,2014-01-11 18:15:00
1:35 PM,58.6,58.6,100,29.72,10.0,SW,11.5,17.3,N/A,,Clear,230,2014-01-11 18:35:00
1:55 PM,59.5,59.5,100,29.72,10.0,SW,13.8,20.7,N/A,,Clear,230,2014-01-11 18:55:00
2:15 PM,61.0,59.2,94,29.72,10.0,SW,9.2,-,N/A,,Scattered Clouds,230,2014-01-11 19:15:00
2:35 PM,61.3,57.6,87,29.71,10.0,WSW,11.5,16.1,N/A,,Scattered Clouds,240,2014-01-11 19:35:00
2:55 PM,62.6,56.5,80,29.69,10.0,WSW,12.7,19.6,N/A,,Scattered Clouds,240,2014-01-11 19:55:00
3:15 PM,63.9,56.5,77,29.68,10.0,SW,12.7,-,N/A,,Clear,230,2014-01-11 20:15:00
3:35 PM,64.4,54.9,71,29.67,10.0,WSW,8.1,11.5,N/A,,Clear,240,2014-01-11 20:35:00
3:55 PM,64.4,54.1,69,29.67,10.0,WSW,11.5,20.7,N/A,,Clear,250,2014-01-11 20:55:00
4:15 PM,64.0,51.8,64,29.67,10.0,West,12.7,18.4,N/A,,Clear,260,2014-01-11 21:15:00
4:35 PM,63.7,50.0,61,29.67,10.0,WSW,12.7,21.9,N/A,,Clear,240,2014-01-11 21:35:00
4:55 PM,63.0,48.2,59,29.67,10.0,WSW,11.5,21.9,N/A,,Clear,240,2014-01-11 21:55:00
5:15 PM,61.7,47.3,59,29.67,10.0,WSW,9.2,16.1,N/A,,Clear,240,2014-01-11 22:15:00
5:35 PM,60.4,46.6,60,29.67,10.0,WSW,10.4,18.4,N/A,,Clear,240,2014-01-11 22:35:00
5:55 PM,59.0,48.2,67,29.67,10.0,SW,8.1,-,N/A,,Clear,220,2014-01-11 22:55:00
6:15 PM,59.0,47.5,66,29.68,10.0,WSW,8.1,17.3,N/A,,Scattered Clouds,240,2014-01-11 23:15:00
6:35 PM,58.3,46.4,65,29.70,10.0,West,9.2,-,N/A,,Clear,260,2014-01-11 23:35:00
6:55 PM,59.0,43.3,56,29.72,10.0,West,10.4,19.6,N/A,,Clear,270,2014-01-11 23:55:00
7:15 PM,58.1,42.1,55,29.73,10.0,West,8.1,-,N/A,,Clear,260,2014-01-12 00:15:00
7:35 PM,57.6,38.7,49,29.74,10.0,West,10.4,16.1,N/A,,Clear,260,2014-01-12 00:35:00
7:55 PM,56.7,36.0,46,29.75,10.0,West,6.9,-,N/A,,Clear,260,2014-01-12 00:55:00
8:15 PM,55.9,34.7,45,29.76,10.0,West,4.6,-,N/A,,Clear,280,2014-01-12 01:15:00
8:35 PM,54.7,34.5,47,29.77,10.0,West,5.8,-,N/A,,Clear,270,2014-01-12 01:35:00
8:55 PM,54.0,34.0,47,29.78,10.0,West,4.6,-,N/A,,Clear,270,2014-01-12 01:55:00
9:15 PM,53.8,33.1,45,29.79,10.0,West,6.9,-,N/A,,Clear,260,2014-01-12 02:15:00
9:35 PM,53.1,33.6,48,29.80,10.0,West,5.8,-,N/A,,Clear,260,2014-01-12 02:35:00
9:55 PM,53.2,34.5,49,29.81,10.0,West,5.8,-,N/A,,Clear,280,2014-01-12 02:55:00
10:15 PM,53.2,35.6,51,29.82,10.0,West,6.9,-,N/A,,Clear,280,2014-01-12 03:15:00
10:35 PM,53.6,36.9,53,29.83,10.0,WNW,6.9,-,N/A,,Clear,290,2014-01-12 03:35:00
10:55 PM,52.7,37.8,57,29.84,10.0,WNW,5.8,-,N/A,,Clear,300,2014-01-12 03:55:00
11:15 PM,51.8,37.9,59,29.85,10.0,West,3.5,-,N/A,,Clear,270,2014-01-12 04:15:00
11:35 PM,51.8,37.8,59,29.86,10.0,NW,6.9,-,N/A,,Clear,320,2014-01-12 04:35:00
11:55 PM,51.1,36.9,58,29.87,10.0,NNW,8.1,-,N/A,,Clear,340,2014-01-12 04:55:00